Greenville, MS

3:19 AM CDT on August 20, 2019 (GMT -0500)
Mid Delta Regional

Weather History for KGLH - July, 2019

Change the Weather History Date:

Friday, July 19, 2019

  Actual Average Record
Temperature  
Mean Temperature 84 °F 82 °F  
Max Temperature 91 °F 92 °F 103 °F (1980)
Min Temperature 77 °F 72 °F 61 °F (2009)
Degree Days  
Heating Degree Days 0 0  
Month to date heating degree days 0 0  
Since 1 June heating degree days 0 0  
Since 1 July heating degree days 0 0  
Cooling Degree Days 19 17  
Month to date cooling degree days 334 321  
Year to date cooling degree days 1140 1063  
Since 1 June cooling degree days 744 741  
Growing Degree Days 34 (Base 50)    
Moisture  
Dew Point 76 °F    
Average Humidity 77    
Maximum Humidity 94    
Minimum Humidity 59    
Precipitation  
Precipitation 0.00 in 0.12 in 1.39 in (1999)
Month to date precipitation 3.29 2.62  
Year to date precipitation 54.97 30.92  
Sea Level Pressure  
Sea Level Pressure 30.02 in    
Wind  
Wind Speed 7 mph (SSW)    
Max Wind Speed 13 mph    
Max Gust Speed 17 mph    
Visibility 10 miles    
Events      
T = Trace of Precipitation, MM = Missing Value Source: NWS Daily Summary

Daily Weather History Graph

Daily Weather History Graph

Search for Another Location

Airport or City:

Astronomy

Jul. 19, 2019 Rise Set
Actual Time 6:07 AM CDT 8:12 PM CDT
Civil Twilight 5:39 AM CDT 8:40 PM CDT
Nautical Twilight 5:05 AM CDT 9:14 PM CDT
Astronomical Twilight 4:28 AM CDT 9:51 PM CDT
Moon 10:17 PM CDT (7/19) 8:29 AM CDT (7/19)
Length of Visible Light 15h 01m
Length of Day
14h 05m
Waning Gibbous, 93% of the Moon is Illuminated
Jul 19
Waning Gibbous
Jul 24
Last Quarter
Jul 31
New
Aug 7
First Quarter
Aug 15
Full

Hourly Weather History & Observations

Time (CDT) Temp. Heat Index Dew Point Humidity Pressure Visibility Wind Dir Wind Speed Gust Speed Precip Events Conditions
12:53 AM 79.0 °F - 75.0 °F 88% 30.01 in 10.0 mi South 4.6 mph - N/A   Clear
1:53 AM 78.1 °F - 75.0 °F 90% 29.99 in 10.0 mi South 6.9 mph - N/A   Clear
2:05 AM 78.1 °F - 75.9 °F 93% 29.97 in 10.0 mi SSW 5.8 mph - N/A   Partly Cloudy
2:53 AM 77.0 °F - 75.0 °F 94% 29.99 in 10.0 mi South 4.6 mph - N/A   Clear
3:53 AM 80.1 °F 85.1 °F 75.0 °F 85% 29.99 in 10.0 mi SW 6.9 mph - N/A   Clear
4:53 AM 80.1 °F 85.4 °F 75.9 °F 87% 30.00 in 10.0 mi SSW 6.9 mph - N/A   Clear
5:53 AM 79.0 °F - 75.9 °F 90% 30.02 in 10.0 mi SW 6.9 mph - N/A   Clear
6:53 AM 80.1 °F 85.4 °F 75.9 °F 87% 30.04 in 10.0 mi SW 5.8 mph - N/A   Clear
7:53 AM 82.0 °F 89.4 °F 75.9 °F 82% 30.06 in 10.0 mi SW 10.4 mph - N/A   Clear
8:53 AM 84.0 °F 92.6 °F 75.9 °F 76% 30.08 in 10.0 mi WSW 8.1 mph - N/A   Clear
9:53 AM 86.0 °F 93.8 °F 73.9 °F 67% 30.08 in 10.0 mi West 9.2 mph - N/A   Clear
10:53 AM 87.1 °F 96.3 °F 75.0 °F 67% 30.08 in 10.0 mi SSW 8.1 mph - N/A   Clear
11:53 AM 88.0 °F 97.5 °F 75.0 °F 65% 30.08 in 10.0 mi SW 8.1 mph - N/A   Partly Cloudy
12:53 PM 90.0 °F 101.3 °F 75.9 °F 63% 30.06 in 10.0 mi South 9.2 mph - N/A   Mostly Cloudy
1:53 PM 90.0 °F 99.0 °F 73.9 °F 59% 30.04 in 10.0 mi SSW 11.5 mph - N/A   Scattered Clouds
2:53 PM 89.1 °F 100.2 °F 75.9 °F 65% 30.03 in 10.0 mi South 8.1 mph - N/A   Mostly Cloudy
3:53 PM 90.0 °F 101.3 °F 75.9 °F 63% 30.01 in 10.0 mi South 10.4 mph - N/A   Mostly Cloudy
4:53 PM 90.0 °F 101.3 °F 75.9 °F 63% 30.01 in 10.0 mi South 8.1 mph - N/A   Scattered Clouds
5:53 PM 89.1 °F 99.1 °F 75.0 °F 63% 29.99 in 10.0 mi South 6.9 mph - N/A   Clear
6:53 PM 89.1 °F 99.1 °F 75.0 °F 63% 29.98 in 10.0 mi South 6.9 mph - N/A   Clear
7:53 PM 84.9 °F 95.3 °F 77.0 °F 77% 29.99 in 10.0 mi South 5.8 mph - N/A   Clear
8:53 PM 82.0 °F 89.4 °F 75.9 °F 82% 30.00 in 10.0 mi SSE 5.8 mph - N/A   Clear
9:53 PM 81.0 °F 87.9 °F 77.0 °F 88% 30.01 in 10.0 mi SE 5.8 mph - N/A   Clear
10:53 PM 80.1 °F 85.4 °F 75.9 °F 87% 30.01 in 10.0 mi South 5.8 mph - N/A   Clear
11:53 PM 79.0 °F - 75.9 °F 90% 30.00 in 10.0 mi South 4.6 mph - N/A   Clear